Temperature
20 20 21 20 24 24 24 23 24 23 23 22 22 23 23 23 22 21 17 17 17 17 17 18 18 18 18 18 18 18 18 18 18 18 18 18 18 18 18 18 17 17 17 17 17 17 18 18 18
20 21 20 22 25 24 23 23 23 23 23 22 22 22 23 21 20 18 17 17 17 17 17 17 18 18 18 18 18 18 18 18 18 18 18 18 17 18 18 17 17 17 17 17 17 17 17 17 17
21 21 22 25 25 25 23 23 23 23 22 22 22 22 22 20 19 18 17 17 17 17 17 17 18 18 18 18 18 18 18 18 18 17 17 17 17 17 17 17 17 17 17 17 17 17 17 17 17
20 21 23 25 24 24 24 24 23 23 22 22 22 22 20 18 18 18 17 17 17 17 17 17 18 18 17 17 17 17 17 17 17 17 17 17 17 17 17 17 17 17 17 17 17 17 17 17 17
20 23 25 24 24 24 24 24 23 24 23 22 22 22 20 18 18 17 17 17 17 17 17 17 17 17 17 17 17 17 17 17 17 17 17 17 17 17 17 17 17 17 17 17 17 17 17 17 17
22 24 25 24 23 23 24 23 23 23 23 22 22 22 20 18 17 17 17 17 17 17 17 17 18 17 17 17 17 17 17 17 17 17 17 17 17 17 17 17 17 17 17 17 17 17 17 16 17
23 24 24 24 23 23 23 23 23 23 23 22 22 22 20 18 17 17 17 17 17 17 17 17 17 17 17 17 17 17 17 17 17 17 17 17 17 17 17 17 17 17 17 17 17 17 16 16 16
22 24 24 24 23 23 23 23 22 23 22 21 21 22 21 18 17 17 17 17 17 17 17 17 17 17 17 17 17 17 17 17 17 17 17 17 17 17 17 16 17 16 16 16 16 16 16 16 16
22 24 24 24 23 23 23 23 22 21 22 21 20 20 19 18 18 17 17 17 17 17 17 17 17 17 17 17 17 17 17 17 17 17 17 16 16 16 16 16 16 16 16 16 16 16 16 16 16
23 24 24 23 24 24 23 23 22 22 22 22 20 19 18 18 18 18 18 18 18 17 17 17 17 17 17 17 17 17 16 16 16 16 16 16 16 16 16 16 16 16 16 16 16 16 16 16 16
24 24 23 23 23 23 23 23 22 23 23 22 21 20 18 18 18 18 18 18 18 17 17 17 17 17 17 17 17 17 16 16 16 16 16 16 16 16 16 16 16 16 16 16 16 16 16 16 15
24 23 23 23 22 22 23 22 22 22 22 21 21 20 19 19 19 18 18 18 18 17 17 17 17 17 17 17 17 17 17 16 16 16 16 16 16 16 16 16 16 16 16 16 15 15 15 15 15
24 23 22 22 22 22 22 22 22 22 21 20 20 19 19 19 19 18 18 18 18 17 17 17 17 17 17 17 17 17 16 16 16 16 16 16 16 16 16 16 16 16 16 15 15 15 15 15 15
23 22 22 22 22 22 22 22 22 22 20 20 20 20 19 19 19 18 18 18 18 18 18 17 17 17 17 17 17 17 16 16 16 16 16 16 16 16 16 16 15 15 15 15 15 15 15 15 15
22 23 23 23 22 22 22 23 23 21 20 20 20 20 19 19 18 18 18 18 18 18 18 17 17 17 17 17 17 16 16 16 16 16 16 16 16 16 16 16 16 15 15 15 15 15 15 15 15
24 24 23 23 23 22 23 23 23 21 21 21 21 20 19 19 19 18 18 18 18 18 18 17 17 17 17 17 16 16 16 16 16 16 16 16 16 16 16 15 15 15 15 15 15 15 15 15 14
24 24 23 23 23 23 23 23 23 21 21 21 21 20 20 19 19 18 18 18 18 18 17 17 17 17 17 17 16 16 16 16 16 16 16 16 16 16 15 15 15 15 15 15 15 15 15 14 14
23 24 23 23 23 23 23 23 23 21 21 21 21 21 20 20 19 19 18 18 18 17 17 17 17 17 17 16 16 16 16 16 16 16 16 16 15 15 15 15 15 15 15 15 15 15 14 14 14
23 23 23 23 23 23 23 23 23 22 21 21 21 21 20 20 19 18 18 18 17 17 17 17 17 16 16 16 16 16 16 16 16 16 15 15 15 15 15 15 15 15 15 15 15 14 14 14 14
23 23 23 23 23 23 23 23 23 22 21 21 21 21 20 20 19 18 18 18 18 17 17 17 17 16 16 16 16 16 16 15 16 15 15 15 15 15 15 15 15 15 15 14 14 14 14 14 14
23 23 23 23 22 23 23 23 23 23 21 20 20 20 20 19 19 19 18 18 17 17 17 17 17 16 16 16 16 16 15 15 15 15 15 15 15 15 15 15 15 15 15 14 14 14 14 14 14
23 23 23 22 23 23 23 23 23 23 22 21 20 20 20 19 19 18 18 17 17 17 17 17 16 16 16 16 16 16 16 16 15 15 15 15 15 15 15 15 15 15 14 14 14 14 14 14 14
23 22 22 22 23 23 23 23 23 23 22 22 21 20 19 19 18 18 17 17 17 17 17 16 16 16 16 16 16 16 16 15 15 15 15 15 15 15 15 15 15 14 14 14 14 14 14 14 14
22 22 22 22 23 23 23 23 23 23 22 22 22 20 19 19 18 18 17 17 17 17 16 16 16 16 16 16 16 16 15 15 15 15 15 15 15 15 15 15 15 14 14 14 14 14 14 14 14
23 23 23 23 23 23 23 22 22 22 22 21 21 20 19 19 18 17 17 17 17 17 16 16 16 16 16 16 16 16 15 15 15 15 15 15 15 15 15 15 14 14 14 14 14 14 14 14 14
23 23 22 22 22 23 22 22 22 22 21 20 20 19 19 18 18 17 17 16 16 16 16 16 16 16 16 15 15 15 15 15 15 15 15 15 15 15 15 15 14 14 14 14 14 14 14 14 14
23 23 23 23 22 22 23 22 22 22 21 20 20 19 18 18 17 17 16 16 16 16 16 16 16 16 15 15 15 15 15 15 15 15 15 15 15 15 15 14 14 14 14 14 14 14 14 14 14
22 22 22 22 21 22 22 22 22 22 21 21 20 19 19 18 17 16 16 16 16 16 16 16 16 15 15 15 15 15 15 15 15 14 15 15 15 15 14 14 14 14 14 14 14 14 14 13 13
22 22 22 22 22 21 21 22 22 22 21 21 20 19 18 17 17 16 16 16 16 16 16 15 15 15 15 15 15 15 15 15 15 14 14 14 14 14 14 14 14 14 14 14 14 14 14 13 13
22 22 22 21 21 21 21 22 22 21 21 20 20 19 18 17 16 16 15 15 15 15 15 15 15 15 15 15 14 14 14 14 14 14 14 14 14 14 14 14 14 14 14 14 14 13 13 13 13
Wind_Speed
1 1 2 3 2 3 6 5 4 5 4 5 5 4 5 6 5 4 4 4 4 4 5 6 5 5 6 7 7 7 8 8 8 8 8 8 9 9 9 9 9 9 9 9 9 9 9 9 9
2 1 3 2 1 4 5 4 6 6 5 4 5 5 5 6 5 5 4 3 4 5 5 6 6 6 6 7 7 7 8 7 8 8 8 8 8 9 9 9 9 9 9 9 9 9 9 9 10
1 2 2 1 1 3 5 5 7 7 5 3 3 4 4 4 4 4 4 4 4 5 5 8 6 6 6 7 7 7 7 7 8 8 8 8 8 9 9 9 9 9 9 9 9 9 10 10 10
2 2 1 2 6 6 6 6 6 6 5 4 3 5 5 5 3 4 6 5 5 5 5 7 6 6 6 7 6 6 7 7 8 8 8 8 8 8 9 9 9 9 9 9 9 10 10 10 10
2 1 3 5 6 6 6 6 5 4 4 5 4 5 6 5 6 7 7 6 5 5 5 7 6 6 6 6 5 6 7 8 8 8 8 8 8 8 9 9 9 9 9 9 9 10 9 9 9
1 1 3 5 7 6 5 4 4 5 6 5 4 5 5 5 6 6 6 5 5 5 5 6 7 6 6 6 6 7 7 7 7 7 8 7 7 8 9 9 9 9 9 9 9 10 9 9 9
1 1 4 6 6 6 4 3 3 4 5 4 3 4 5 6 6 6 6 6 5 5 5 5 5 6 6 6 6 6 7 7 7 7 7 7 7 8 9 9 9 9 9 9 10 10 10 10 10
1 2 5 5 6 5 4 4 3 2 4 3 1 2 5 6 7 7 6 6 5 5 4 4 4 4 5 6 6 6 6 6 7 7 7 6 7 7 7 8 10 9 9 10 10 10 10 10 10
2 2 4 4 4 5 5 5 3 2 4 4 3 3 5 8 8 7 6 5 5 4 3 3 4 4 4 5 6 5 6 5 5 6 6 4 4 5 6 9 9 8 9 9 10 10 9 8 9
0 2 4 3 3 4 5 4 4 4 4 4 5 5 7 9 8 7 6 5 5 4 3 3 3 3 3 3 4 3 4 4 4 4 4 4 4 4 5 9 8 8 8 9 9 7 6 3 6
2 3 5 4 3 4 4 4 3 3 2 2 4 8 9 8 7 6 5 4 4 3 3 2 2 2 3 3 2 3 3 3 3 4 4 3 4 3 4 5 6 6 5 6 6 4 5 6 6
4 4 3 4 3 3 4 3 3 2 1 3 4 8 9 8 7 6 4 4 3 3 3 2 2 2 2 3 2 2 2 2 2 3 3 3 2 2 3 3 4 3 4 4 4 4 6 6 6
4 4 4 3 3 3 3 3 2 2 2 3 6 8 8 7 6 5 4 3 3 3 3 2 2 2 2 2 1 2 2 2 3 2 2 2 2 2 3 3 3 3 4 4 4 4 5 5 6
4 3 3 2 3 3 3 2 3 3 4 5 6 7 8 7 6 5 4 4 4 3 3 2 3 3 3 2 2 2 2 2 1 2 2 2 2 2 2 3 3 3 3 4 4 5 4 4 5
3 3 3 3 2 2 2 4 3 3 4 5 6 6 7 6 6 5 4 4 3 3 3 2 2 3 3 3 2 2 2 2 2 1 1 2 2 2 2 2 3 4 4 5 4 5 4 4 4
3 3 3 3 2 2 4 3 3 3 5 5 5 6 6 6 6 5 4 3 3 3 3 3 2 2 3 3 2 2 2 1 1 1 1 1 2 3 3 2 3 4 4 4 4 3 3 4 4
3 2 2 3 3 2 4 3 2 3 5 5 5 5 6 6 6 5 4 4 3 3 3 3 3 2 3 3 2 2 2 1 1 1 1 1 3 3 3 2 3 4 4 4 3 3 3 4 4
1 1 1 1 1 3 4 4 2 3 5 5 5 5 5 5 5 4 4 4 4 4 3 3 3 3 3 3 2 2 2 1 1 1 1 1 2 3 3 3 3 4 3 3 4 4 3 3 3
1 2 2 1 0 3 5 5 3 3 4 5 5 5 4 4 4 4 4 4 4 4 4 3 3 3 3 2 2 2 2 1 1 1 1 2 2 3 4 3 4 3 3 3 4 4 4 4 3
3 3 2 0 0 3 4 4 2 2 4 4 4 4 4 4 4 4 4 4 4 4 4 3 3 3 3 2 2 2 1 1 1 1 1 1 2 3 4 4 4 4 4 4 4 4 3 3 1
3 3 2 2 2 3 4 3 3 2 2 2 3 3 3 3 4 4 4 4 4 4 4 3 3 3 3 3 3 3 2 2 2 2 1 1 2 3 4 4 4 4 4 4 4 4 4 3 2
3 2 3 3 3 1 2 2 2 1 2 2 3 3 3 3 3 3 4 4 4 4 4 4 3 3 3 4 3 3 2 2 1 1 2 2 2 3 3 4 4 4 4 4 5 4 3 3 2
1 1 3 4 4 4 3 4 1 1 1 1 2 3 3 3 3 3 4 4 4 4 4 3 3 3 3 3 3 3 2 2 2 2 2 2 2 2 3 4 4 4 4 4 4 3 3 3 2
2 3 3 4 5 4 2 4 1 0 2 2 1 2 3 3 3 3 3 4 4 4 4 4 4 4 3 4 4 3 3 3 3 3 3 2 2 2 3 3 3 4 4 4 4 4 4 3 2
4 4 3 4 4 2 0 4 1 2 2 2 1 0 2 3 3 4 4 4 4 4 4 4 3 4 4 4 4 4 4 4 4 3 3 2 2 2 3 3 4 4 4 5 5 4 4 4 3
4 5 4 3 3 2 2 3 1 2 1 1 1 1 2 2 3 3 3 4 4 4 4 4 4 4 4 4 4 4 4 3 3 3 3 3 2 2 3 3 4 4 4 4 4 4 3 3 3
4 4 4 5 5 5 3 2 1 1 1 1 2 2 2 2 2 3 3 3 4 4 4 4 4 4 4 4 3 4 4 3 3 3 3 2 2 2 3 3 4 4 4 4 4 3 4 3 3
2 2 3 4 4 5 4 4 2 2 1 1 1 1 1 1 1 1 2 3 3 4 4 4 4 4 4 4 3 3 3 3 3 3 2 3 3 3 3 4 3 3 3 4 4 4 3 4 3
3 4 4 5 5 5 5 2 1 1 1 1 1 1 1 1 1 1 1 2 3 4 4 4 3 4 4 4 4 4 3 3 3 3 2 2 2 3 3 4 4 4 4 4 4 4 4 4 4
4 5 6 7 6 6 7 3 2 0 2 2 3 2 2 2 1 1 1 2 3 3 3 4 4 4 3 4 4 4 3 3 3 3 3 3 3 3 3 3 4 4 4 4 4 4 5 5 5
Wind_Direction
246 271 264 251 212 97 81 77 83 87 75 61 58 58 58 42 26 62 94 95 86 102 102 114 106 108 109 104 105 107 107 104 102 101 97 92 90 89 89 86 81 78 80 80 81 82 81 81 80
315 284 254 251 208 116 91 93 91 77 91 95 73 63 69 65 55 85 108 98 106 102 97 93 100 103 106 106 106 108 108 107 105 102 100 96 95 92 92 89 82 78 78 78 77 81 83 83 82
265 266 282 243 96 89 108 107 100 96 93 89 79 57 51 61 72 91 97 118 116 104 98 93 93 95 98 101 104 108 113 112 109 104 99 96 95 95 93 90 84 80 78 79 79 81 82 82 81
257 227 219 115 96 77 101 114 119 120 97 76 94 88 79 54 66 92 114 122 113 102 97 100 94 97 100 98 99 99 107 109 108 105 98 94 92 92 89 86 81 80 80 81 82 82 82 82 81
256 240 148 118 102 98 102 108 125 110 97 89 88 94 92 77 88 105 115 115 109 102 96 102 95 106 109 104 98 102 102 102 100 98 96 94 93 90 88 86 85 83 83 84 85 83 82 82 81
234 213 161 135 117 115 114 115 125 104 103 103 94 100 94 104 106 110 113 110 101 98 96 102 106 104 101 100 97 99 99 99 96 93 92 92 87 85 86 88 86 85 87 89 87 84 84 84 83
291 155 144 137 134 131 122 125 123 117 110 90 94 105 118 123 113 116 114 111 104 103 99 94 106 120 121 103 92 95 97 99 98 97 96 93 90 88 88 90 88 86 87 88 87 83 82 82 82
348 153 144 146 147 127 126 132 107 108 98 99 93 105 122 133 131 128 121 117 116 111 106 105 99 98 107 111 101 96 96 98 97 99 96 103 112 107 103 102 91 86 86 86 88 86 83 83 80
267 179 149 141 147 129 140 141 115 107 119 114 87 68 104 130 140 138 135 131 125 115 107 105 108 103 96 99 109 116 114 110 120 114 113 135 118 107 112 86 90 89 87 87 88 89 89 95 93
265 142 113 104 119 131 145 145 140 156 141 132 124 111 127 143 150 148 146 142 138 133 123 118 114 122 115 106 110 110 115 118 106 100 113 111 99 98 98 102 100 100 101 103 98 106 122 116 92
79 98 106 108 106 136 146 141 158 172 147 134 141 142 149 153 157 158 155 146 140 140 134 134 135 130 133 131 117 112 112 113 102 96 105 110 108 116 114 115 120 115 120 106 113 119 84 77 74
104 88 93 108 116 143 144 139 151 196 88 87 129 146 155 162 164 169 169 160 156 157 151 149 152 146 144 142 136 139 131 125 116 106 94 101 99 100 97 103 104 115 105 99 97 86 82 76 74
111 102 92 97 122 139 147 147 155 159 124 132 140 154 164 168 167 168 171 172 166 164 166 164 169 158 146 138 168 164 136 125 120 115 113 116 112 110 112 113 107 105 106 106 98 94 86 77 70
104 113 112 114 125 144 159 169 185 152 146 152 161 170 175 176 177 176 180 186 177 172 171 173 178 175 173 165 176 147 139 152 134 131 147 138 128 130 127 114 109 112 108 103 108 102 92 83 75
139 141 140 132 141 146 186 202 196 148 166 174 178 179 181 185 189 193 189 194 191 179 169 160 178 182 177 176 169 152 165 160 141 140 159 146 143 146 134 126 121 124 121 116 104 99 92 89 86
181 190 168 140 160 170 224 226 150 164 194 195 191 187 190 192 196 195 195 201 198 194 179 162 179 190 172 173 172 162 165 158 147 142 145 165 161 151 146 136 124 126 125 120 108 103 102 91 82
188 184 156 149 169 198 232 256 151 190 215 213 200 195 196 193 196 196 200 203 198 195 184 174 175 185 170 166 161 168 159 150 143 134 148 172 165 170 157 140 139 134 130 121 114 102 90 86 78
174 198 209 211 172 235 246 267 257 220 223 223 213 204 199 198 196 190 192 194 187 184 180 169 168 185 169 168 167 155 153 172 138 114 132 152 175 166 151 153 149 137 135 129 123 115 103 88 84
243 247 269 309 286 254 257 275 278 223 213 214 211 210 213 205 188 178 180 177 177 179 183 175 183 182 175 168 173 167 166 174 153 139 132 159 177 170 161 167 156 152 148 146 140 126 118 110 101
236 248 265 216 106 265 277 277 251 199 211 217 217 213 213 203 185 175 182 178 180 178 181 179 183 176 166 160 166 160 154 156 135 153 143 155 168 174 177 178 170 165 158 160 151 144 146 138 152
239 260 282 297 283 221 269 234 185 158 178 199 224 231 220 205 198 179 183 184 182 181 179 182 181 173 163 160 154 147 146 181 168 161 150 153 164 169 178 180 175 173 174 171 171 172 173 174 172
247 278 270 265 259 245 265 260 161 152 177 194 208 210 207 194 191 179 179 181 181 178 174 179 176 173 168 172 171 169 178 184 171 156 144 153 155 167 177 175 174 176 182 181 187 189 188 189 201
289 307 255 250 251 253 231 258 163 135 262 246 225 212 204 191 186 178 178 176 167 157 159 165 165 171 172 176 172 191 195 187 176 177 160 155 140 145 163 174 180 183 184 188 189 191 207 211 232
183 212 207 217 237 241 253 262 248 92 317 315 271 208 196 181 175 169 157 154 152 146 149 159 170 166 170 180 186 195 192 193 187 186 179 175 158 153 163 177 187 192 189 191 193 202 211 228 236
221 251 240 221 225 242 294 258 284 20 347 313 338 98 167 166 164 157 151 158 153 155 158 161 170 170 174 185 192 198 201 201 197 196 190 190 175 172 180 186 201 200 194 196 200 208 217 218 230
230 249 268 276 272 278 236 247 23 30 16 335 8 76 109 135 139 138 150 163 164 165 166 171 176 172 172 185 198 202 200 210 204 207 210 207 201 195 193 195 203 202 201 203 202 211 213 220 223
228 233 283 280 280 271 240 239 230 148 133 133 122 105 108 115 125 135 146 158 164 170 176 182 186 180 180 186 199 205 200 207 212 214 221 213 208 198 194 197 203 200 200 209 207 207 208 214 230
287 223 233 253 272 269 259 251 245 189 180 133 163 169 144 134 142 154 162 170 169 176 178 180 193 189 184 186 195 209 213 213 216 215 215 213 212 201 193 200 199 194 195 205 206 208 209 209 221
195 208 238 252 264 275 278 275 43 256 280 274 258 239 229 234 209 200 197 186 178 173 176 178 187 186 185 190 199 206 207 217 215 211 214 218 217 203 197 202 204 197 198 203 200 207 208 214 220
251 251 244 255 256 256 275 279 82 355 316 304 298 289 266 259 236 199 192 191 186 180 179 184 190 186 188 196 198 204 206 210 217 213 214 215 211 206 208 205 203 202 207 208 208 211 215 219 224
Height
1522 1522 1522 1524 1522 1522 1527 1528 1526 1528 1528 1531 1531 1530 1530 1532 1534 1541 1542 1540 1540 1541 1541 1540 1541 1541 1541 1541 1541 1541 1541 1541 1541 1541 1541 1542 1542 1542 1542 1541 1541 1541 1541 1541 1541 1540 1540 1540 1539
1522 1523 1524 1524 1520 1527 1532 1529 1528 1530 1532 1533 1533 1533 1533 1536 1539 1540 1540 1540 1541 1542 1542 1542 1541 1542 1542 1542 1542 1542 1542 1542 1542 1543 1543 1543 1543 1543 1543 1543 1543 1543 1543 1542 1542 1542 1541 1541 1541
1523 1523 1526 1521 1521 1526 1531 1529 1530 1532 1534 1534 1534 1535 1536 1539 1541 1541 1542 1542 1542 1543 1543 1542 1542 1542 1543 1543 1543 1543 1543 1544 1544 1544 1544 1544 1544 1544 1544 1544 1544 1544 1544 1544 1543 1543 1543 1542 1542
1525 1526 1526 1522 1526 1527 1527 1529 1531 1533 1535 1535 1535 1537 1540 1542 1542 1543 1542 1543 1544 1544 1544 1543 1543 1543 1543 1544 1544 1544 1544 1545 1545 1545 1545 1545 1545 1545 1545 1545 1545 1545 1545 1545 1545 1544 1544 1544 1544
1525 1525 1523 1526 1528 1529 1529 1531 1532 1532 1534 1536 1536 1538 1541 1543 1543 1543 1543 1544 1545 1545 1545 1545 1544 1544 1545 1545 1545 1545 1545 1546 1546 1546 1547 1547 1547 1547 1547 1547 1546 1546 1546 1546 1546 1546 1545 1545 1545
1527 1524 1525 1529 1530 1530 1531 1533 1533 1533 1535 1537 1538 1539 1542 1544 1544 1544 1545 1545 1546 1546 1546 1546 1545 1545 1546 1546 1546 1546 1546 1547 1547 1548 1548 1548 1548 1548 1548 1548 1548 1548 1548 1548 1547 1547 1547 1546 1546
1527 1523 1525 1528 1531 1531 1533 1534 1534 1535 1536 1538 1539 1540 1543 1544 1545 1545 1546 1546 1546 1547 1547 1547 1547 1547 1547 1547 1547 1547 1548 1548 1548 1549 1549 1549 1550 1549 1549 1550 1550 1549 1549 1549 1549 1548 1548 1548 1547
1527 1525 1527 1528 1531 1532 1534 1535 1536 1536 1538 1540 1541 1540 1543 1545 1545 1545 1546 1547 1547 1548 1548 1548 1548 1549 1549 1549 1548 1549 1549 1550 1550 1550 1551 1551 1551 1551 1551 1551 1551 1551 1550 1550 1550 1550 1549 1549 1548
1528 1526 1528 1529 1531 1532 1534 1535 1537 1538 1539 1541 1541 1542 1543 1544 1545 1546 1547 1548 1548 1549 1549 1549 1549 1550 1550 1550 1550 1550 1550 1551 1551 1551 1552 1552 1553 1553 1553 1553 1552 1552 1552 1551 1551 1551 1551 1550 1550
1527 1526 1529 1530 1530 1532 1534 1535 1537 1538 1538 1540 1542 1543 1543 1544 1546 1547 1548 1549 1549 1549 1549 1550 1550 1550 1551 1551 1551 1552 1552 1552 1553 1553 1553 1553 1554 1554 1553 1553 1553 1553 1553 1553 1552 1552 1552 1552 1552
1528 1528 1530 1532 1533 1534 1535 1536 1537 1537 1537 1539 1541 1543 1544 1545 1546 1548 1548 1549 1550 1550 1550 1550 1551 1551 1551 1551 1552 1552 1553 1553 1553 1554 1554 1554 1554 1554 1555 1555 1555 1555 1554 1554 1554 1554 1554 1554 1553
1530 1531 1532 1533 1535 1535 1535 1537 1538 1538 1539 1540 1541 1543 1544 1546 1547 1548 1549 1549 1550 1550 1550 1551 1551 1551 1551 1552 1552 1552 1553 1554 1554 1554 1555 1555 1555 1555 1555 1555 1555 1555 1555 1555 1555 1555 1555 1555 1555
1530 1532 1534 1535 1535 1536 1536 1537 1538 1539 1540 1540 1541 1543 1544 1546 1547 1548 1549 1549 1550 1550 1550 1551 1551 1551 1551 1552 1552 1553 1553 1554 1554 1554 1554 1555 1555 1555 1555 1555 1555 1556 1556 1555 1555 1555 1555 1555 1555
1533 1533 1534 1535 1535 1536 1536 1537 1538 1538 1540 1541 1542 1543 1544 1545 1546 1548 1548 1549 1549 1550 1550 1550 1550 1551 1551 1552 1552 1553 1553 1553 1554 1554 1555 1555 1555 1555 1555 1556 1555 1556 1556 1556 1556 1556 1556 1556 1555
1534 1533 1534 1535 1535 1536 1537 1536 1536 1538 1539 1540 1541 1542 1544 1545 1546 1547 1548 1548 1549 1549 1549 1550 1550 1550 1551 1551 1552 1552 1553 1554 1554 1554 1555 1555 1555 1555 1555 1556 1555 1556 1556 1556 1556 1556 1556 1556 1556
1532 1531 1533 1534 1534 1536 1537 1536 1535 1538 1539 1539 1540 1541 1543 1544 1545 1546 1547 1547 1548 1548 1549 1549 1549 1549 1550 1550 1551 1552 1553 1553 1553 1554 1554 1555 1555 1555 1555 1556 1556 1556 1556 1557 1557 1557 1557 1557 1557
1530 1532 1533 1533 1533 1534 1534 1533 1534 1537 1537 1538 1539 1540 1541 1543 1544 1545 1545 1546 1546 1547 1547 1548 1548 1549 1549 1550 1550 1551 1552 1552 1553 1553 1553 1554 1555 1555 1556 1556 1556 1557 1557 1557 1557 1557 1557 1557 1557
1533 1531 1532 1532 1532 1533 1533 1531 1532 1535 1536 1536 1537 1538 1540 1541 1542 1543 1544 1545 1545 1545 1546 1546 1547 1547 1548 1548 1549 1550 1551 1552 1552 1552 1552 1553 1554 1555 1555 1555 1556 1556 1557 1557 1557 1557 1558 1558 1557
1531 1531 1532 1531 1531 1533 1531 1530 1530 1532 1534 1534 1535 1537 1538 1539 1541 1542 1542 1543 1544 1544 1545 1545 1546 1546 1547 1547 1548 1549 1550 1551 1551 1551 1552 1552 1553 1554 1554 1555 1556 1556 1557 1557 1558 1558 1558 1558 1558
1531 1532 1531 1531 1531 1532 1530 1528 1528 1530 1532 1533 1534 1535 1536 1538 1539 1540 1541 1542 1543 1543 1544 1545 1545 1545 1546 1546 1547 1548 1549 1550 1550 1550 1551 1552 1552 1553 1554 1554 1555 1556 1556 1557 1558 1558 1558 1558 1559
1531 1531 1531 1533 1532 1530 1530 1528 1526 1528 1531 1533 1534 1534 1535 1536 1537 1538 1539 1540 1541 1542 1542 1543 1544 1545 1545 1546 1547 1547 1548 1549 1550 1550 1550 1550 1551 1552 1552 1554 1554 1555 1556 1557 1557 1557 1558 1558 1559
1532 1530 1531 1532 1532 1531 1532 1534 1525 1525 1528 1530 1531 1532 1533 1534 1536 1537 1538 1538 1539 1540 1541 1542 1543 1544 1544 1545 1545 1547 1547 1548 1549 1549 1549 1550 1550 1551 1551 1553 1553 1554 1555 1556 1557 1557 1558 1558 1558
1530 1531 1530 1530 1530 1531 1528 1531 1525 1524 1526 1527 1529 1531 1532 1533 1534 1535 1536 1537 1538 1539 1539 1540 1542 1542 1543 1544 1545 1545 1546 1547 1548 1549 1549 1549 1549 1550 1551 1552 1553 1553 1554 1555 1556 1556 1557 1558 1558
1531 1531 1530 1529 1528 1534 1529 1530 1529 1524 1526 1526 1527 1529 1530 1531 1532 1533 1534 1535 1536 1537 1538 1539 1540 1541 1542 1543 1544 1545 1545 1546 1547 1547 1548 1548 1548 1549 1550 1550 1551 1552 1553 1554 1555 1555 1556 1557 1557
1529 1530 1534 1535 1534 1532 1528 1530 1529 1524 1526 1527 1527 1528 1529 1530 1531 1532 1533 1533 1534 1535 1536 1537 1538 1539 1540 1541 1543 1543 1544 1545 1546 1546 1547 1547 1548 1548 1548 1549 1550 1551 1552 1553 1554 1554 1555 1555 1555
1528 1528 1536 1542 1537 1530 1528 1529 1526 1525 1527 1528 1528 1528 1529 1529 1530 1531 1532 1532 1533 1534 1535 1536 1537 1538 1539 1540 1541 1542 1543 1544 1544 1545 1545 1546 1546 1547 1547 1548 1549 1550 1551 1551 1552 1553 1553 1554 1554
1528 1527 1527 1530 1530 1533 1526 1525 1524 1524 1525 1526 1527 1528 1528 1529 1529 1530 1531 1531 1532 1533 1533 1534 1536 1537 1538 1539 1540 1541 1542 1542 1543 1543 1544 1544 1544 1545 1545 1546 1547 1548 1549 1550 1550 1551 1551 1552 1552
1528 1527 1529 1532 1539 1536 1529 1526 1524 1523 1523 1524 1525 1527 1527 1528 1529 1529 1529 1530 1531 1531 1532 1533 1534 1535 1536 1537 1538 1539 1540 1541 1541 1541 1542 1542 1543 1543 1543 1544 1545 1546 1547 1548 1548 1549 1549 1550 1550
1530 1530 1529 1529 1530 1536 1534 1528 1518 1520 1522 1523 1524 1526 1527 1527 1527 1527 1528 1528 1529 1530 1531 1532 1533 1534 1534 1535 1536 1537 1538 1539 1539 1539 1540 1540 1541 1541 1541 1542 1543 1544 1545 1545 1546 1547 1547 1548 1548
1527 1527 1528 1533 1531 1531 1531 1528 1518 1521 1523 1524 1524 1525 1526 1526 1526 1526 1526 1526 1527 1528 1529 1530 1531 1532 1532 1533 1534 1535 1536 1537 1537 1537 1538 1538 1538 1539 1539 1540 1541 1542 1542 1543 1544 1544 1545 1545 1546